TKY87T BIAR-ENSB

Flight info

Callsign TKY87T
Flight time 2h 23m
Altitude 39000
Route UTISU DCT 70N012W 75N000E/N0460F390 DCT INPAR
Aircraft A319/M-SDE3FGHIRWY/LB1

Departure

Time 2026-05-09 17:52
Airport Akureyri International Airport (BIAR)

Arrival

Time 2026-05-09 20:16
Airport Svalbard Airport, Longyear (ENSB)
Time Latitude Longitude Altitude Speed Heading
2026-05-09 17:36 65.65425 -18.07486 21 ft 0 kts 354°
2026-05-09 17:36 65.65425 -18.07484 21 ft 0 kts 354°
2026-05-09 17:47 65.65425 -18.07485 21 ft 0 kts 354°
2026-05-09 17:48 65.65426 -18.07485 21 ft 0 kts 354°
2026-05-09 17:49 65.65438 -18.07488 21 ft 3 kts 354°
2026-05-09 17:49 65.65481 -18.07455 21 ft 11 kts 26°
2026-05-09 17:49 65.65477 -18.07235 21 ft 18 kts 115°
2026-05-09 17:49 65.65347 -18.07151 23 ft 21 kts 174°
2026-05-09 17:50 65.65196 -18.07118 24 ft 23 kts 176°
2026-05-09 17:50 65.64876 -18.07058 22 ft 26 kts 175°
2026-05-09 17:50 65.64690 -18.07023 22 ft 28 kts 175°
2026-05-09 17:51 65.64540 -18.06998 22 ft 17 kts 186°
2026-05-09 17:51 65.64469 -18.06971 25 ft 9 kts 63°
2026-05-09 17:51 65.64514 -18.06990 24 ft 9 kts 354°
2026-05-09 17:51 65.64793 -18.07041 22 ft 84 kts 355°
2026-05-09 17:52 65.65631 -18.07202 135 ft 145 kts 354°
2026-05-09 17:52 65.66662 -18.07408 899 ft 152 kts 354°
2026-05-09 17:52 65.67728 -18.07706 1743 ft 155 kts 354°
2026-05-09 17:52 65.68864 -18.08056 2455 ft 177 kts 353°
2026-05-09 17:53 65.70169 -18.08459 3042 ft 200 kts 353°
2026-05-09 17:53 65.71622 -18.08870 3674 ft 221 kts 353°
2026-05-09 17:53 65.73228 -18.09315 4312 ft 248 kts 353°
2026-05-09 17:53 65.75011 -18.09790 5430 ft 259 kts 352°
2026-05-09 17:54 65.76829 -18.09491 6645 ft 270 kts 12°
2026-05-09 17:54 65.78465 -18.07242 7802 ft 283 kts 40°
2026-05-09 17:54 65.79535 -18.03133 9022 ft 296 kts 67°
2026-05-09 17:54 65.80164 -17.98321 10266 ft 300 kts 69°
2026-05-09 17:55 65.80798 -17.93323 10976 ft 321 kts 68°
2026-05-09 17:55 65.81482 -17.87926 11466 ft 345 kts 68°
2026-05-09 17:55 65.82205 -17.82212 12238 ft 358 kts 68°
2026-05-09 17:55 65.82944 -17.76339 13125 ft 365 kts 68°
2026-05-09 17:56 65.83696 -17.70366 14047 ft 371 kts 68°
2026-05-09 17:56 65.84459 -17.64302 14844 ft 377 kts 67°
2026-05-09 17:56 65.85230 -17.58144 15636 ft 381 kts 67°
2026-05-09 17:57 65.86850 -17.45664 17184 ft 387 kts 60°
2026-05-09 17:57 65.88108 -17.39902 17985 ft 382 kts 48°
2026-05-09 17:57 65.89776 -17.34937 18775 ft 376 kts 36°
2026-05-09 17:57 65.91777 -17.30925 19495 ft 369 kts 25°
2026-05-09 17:58 65.94004 -17.27968 20266 ft 362 kts 15°
2026-05-09 17:58 65.96321 -17.25520 21027 ft 364 kts 15°
2026-05-09 17:58 65.98653 -17.23032 21775 ft 367 kts 15°
2026-05-09 17:58 66.00996 -17.20511 22490 ft 369 kts 15°
2026-05-09 17:59 66.03356 -17.17957 23190 ft 372 kts 15°
2026-05-09 17:59 66.05732 -17.15380 23862 ft 374 kts 15°
2026-05-09 17:59 66.08122 -17.12789 24437 ft 377 kts 14°
2026-05-09 17:59 66.10526 -17.10178 24983 ft 379 kts 14°
2026-05-09 18:00 66.12947 -17.07543 25520 ft 381 kts 14°
2026-05-09 18:00 66.15383 -17.04891 26060 ft 383 kts 14°
2026-05-09 18:00 66.17830 -17.02225 26595 ft 386 kts 14°
2026-05-09 18:00 66.20289 -16.99544 27120 ft 388 kts 14°
2026-05-09 18:01 66.22770 -16.96832 27633 ft 390 kts 14°
2026-05-09 18:01 66.25257 -16.94102 28125 ft 393 kts 13°
2026-05-09 18:01 66.27764 -16.91342 28606 ft 395 kts 13°
2026-05-09 18:01 66.30283 -16.88566 29125 ft 397 kts 13°
2026-05-09 18:02 66.32785 -16.85806 29561 ft 400 kts 13°
2026-05-09 18:02 66.35339 -16.82983 29991 ft 403 kts 13°
2026-05-09 18:02 66.37906 -16.80135 30511 ft 404 kts 13°
2026-05-09 18:02 66.40473 -16.77270 30932 ft 405 kts 13°
2026-05-09 18:03 66.43048 -16.74381 31284 ft 407 kts 13°
2026-05-09 18:03 66.45628 -16.71479 31698 ft 407 kts 13°
2026-05-09 18:03 66.48204 -16.68582 32170 ft 406 kts 13°
2026-05-09 18:03 66.50778 -16.65689 32633 ft 405 kts 13°
2026-05-09 18:04 66.53350 -16.62789 33095 ft 405 kts 13°
2026-05-09 18:04 66.55912 -16.59895 33557 ft 404 kts 13°
2026-05-09 18:04 66.58475 -16.57002 34021 ft 404 kts 13°
2026-05-09 18:04 66.61035 -16.54106 34450 ft 403 kts 13°
2026-05-09 18:05 66.63593 -16.51215 34801 ft 404 kts 13°
2026-05-09 18:05 66.66164 -16.48304 35130 ft 405 kts 13°
2026-05-09 18:05 66.68739 -16.45375 35469 ft 407 kts 14°
2026-05-09 18:05 66.71325 -16.42416 35729 ft 410 kts 14°
2026-05-09 18:06 66.73928 -16.39428 35991 ft 412 kts 14°
2026-05-09 18:06 66.76545 -16.36411 36266 ft 414 kts 14°
2026-05-09 18:06 66.79168 -16.33379 36559 ft 415 kts 15°
2026-05-09 18:06 66.81800 -16.30330 36839 ft 416 kts 15°
2026-05-09 18:07 66.84436 -16.27279 37161 ft 418 kts 16°
2026-05-09 18:07 66.87090 -16.24208 37378 ft 420 kts 16°
2026-05-09 18:07 66.89758 -16.21112 37633 ft 422 kts 16°
2026-05-09 18:07 66.92431 -16.17999 37902 ft 423 kts 17°
2026-05-09 18:08 66.95109 -16.14871 38166 ft 424 kts 17°
2026-05-09 18:08 66.97795 -16.11724 38425 ft 425 kts 17°
2026-05-09 18:08 67.00485 -16.08562 38687 ft 426 kts 17°
2026-05-09 18:08 67.03144 -16.05434 38901 ft 427 kts 17°
2026-05-09 18:09 67.05844 -16.02250 39087 ft 428 kts 18°
2026-05-09 18:09 67.08548 -15.99040 39233 ft 429 kts 18°
2026-05-09 18:09 67.11258 -15.95809 39287 ft 429 kts 18°
2026-05-09 18:10 67.16677 -15.89352 39289 ft 429 kts 18°
2026-05-09 18:10 67.22094 -15.82878 39274 ft 429 kts 18°
2026-05-09 18:11 67.27509 -15.76360 39271 ft 429 kts 18°
2026-05-09 18:11 67.32928 -15.69846 39287 ft 430 kts 18°
2026-05-09 18:12 67.37428 -15.64380 39279 ft 429 kts 18°
2026-05-09 18:12 67.42840 -15.57772 39268 ft 430 kts 18°
2026-05-09 18:13 67.48252 -15.51128 39281 ft 431 kts 18°
2026-05-09 18:13 67.53681 -15.44463 39275 ft 431 kts 18°
2026-05-09 18:14 67.59116 -15.37764 39269 ft 432 kts 18°
2026-05-09 18:14 67.64550 -15.30995 39259 ft 432 kts 19°
2026-05-09 18:15 67.69981 -15.24175 39260 ft 433 kts 19°
2026-05-09 18:15 67.75375 -15.17378 39262 ft 433 kts 19°
2026-05-09 18:16 67.80806 -15.10515 39280 ft 433 kts 19°
2026-05-09 18:16 67.86244 -15.03611 39277 ft 434 kts 19°
2026-05-09 18:17 67.91691 -14.96674 39255 ft 435 kts 19°
2026-05-09 18:17 67.97143 -14.89677 39250 ft 435 kts 19°
2026-05-09 18:18 68.02598 -14.82639 39235 ft 436 kts 20°
2026-05-09 18:18 68.08054 -14.75549 39235 ft 436 kts 20°
2026-05-09 18:19 68.13505 -14.68419 39236 ft 436 kts 20°
2026-05-09 18:19 68.21686 -14.57679 39229 ft 437 kts 20°
2026-05-09 18:20 68.27147 -14.50472 39270 ft 438 kts 20°
2026-05-09 18:20 68.32623 -14.43217 39242 ft 439 kts 20°
2026-05-09 18:21 68.38102 -14.35893 39230 ft 439 kts 20°
2026-05-09 18:21 68.43586 -14.28512 39229 ft 440 kts 20°
2026-05-09 18:22 68.49068 -14.21085 39232 ft 440 kts 21°
2026-05-09 18:22 68.54552 -14.13646 39233 ft 440 kts 20°
2026-05-09 18:23 68.60042 -14.06164 39234 ft 441 kts 21°
2026-05-09 18:23 68.65529 -13.98651 39247 ft 441 kts 21°
2026-05-09 18:24 68.71011 -13.91089 39247 ft 441 kts 21°
2026-05-09 18:25 68.79200 -13.79690 39253 ft 442 kts 21°
2026-05-09 18:25 68.84690 -13.72020 39246 ft 442 kts 21°
2026-05-09 18:26 68.90179 -13.64296 39241 ft 443 kts 22°
2026-05-09 18:26 68.95681 -13.56476 39206 ft 445 kts 22°
2026-05-09 18:27 69.01210 -13.48616 39218 ft 447 kts 22°
2026-05-09 18:27 69.06762 -13.40669 39216 ft 449 kts 22°
2026-05-09 18:28 69.12325 -13.32676 39213 ft 450 kts 22°
2026-05-09 18:28 69.17890 -13.24605 39221 ft 451 kts 22°
2026-05-09 18:29 69.23458 -13.16496 39255 ft 451 kts 22°
2026-05-09 18:29 69.29038 -13.08344 39245 ft 452 kts 22°
2026-05-09 18:30 69.34627 -13.00110 39231 ft 453 kts 22°
2026-05-09 18:30 69.40211 -12.91811 39239 ft 453 kts 23°
2026-05-09 18:31 69.45796 -12.83461 39237 ft 454 kts 23°
2026-05-09 18:31 69.51399 -12.75085 39223 ft 455 kts 23°
2026-05-09 18:32 69.56990 -12.66638 39223 ft 455 kts 23°
2026-05-09 18:32 69.62582 -12.58128 39225 ft 455 kts 23°
2026-05-09 18:33 69.68176 -12.49592 39227 ft 455 kts 23°
2026-05-09 18:33 69.73773 -12.41010 39237 ft 456 kts 24°
2026-05-09 18:34 69.79371 -12.32368 39235 ft 457 kts 24°
2026-05-09 18:34 69.84970 -12.23661 39221 ft 457 kts 24°
2026-05-09 18:35 69.90577 -12.14892 39214 ft 458 kts 24°
2026-05-09 18:35 69.96182 -12.06053 39212 ft 458 kts 24°
2026-05-09 18:36 70.01774 -11.97073 39204 ft 459 kts 25°
2026-05-09 18:36 70.07309 -11.87710 39203 ft 460 kts 26°
2026-05-09 18:37 70.12806 -11.78113 39204 ft 459 kts 27°
2026-05-09 18:37 70.18287 -11.68556 39207 ft 457 kts 26°
2026-05-09 18:38 70.23754 -11.59049 39211 ft 455 kts 26°
2026-05-09 18:38 70.29166 -11.49585 39196 ft 454 kts 27°
2026-05-09 18:40 70.50822 -11.11000 39182 ft 453 kts 27°
2026-05-09 18:41 70.56224 -11.01224 39191 ft 453 kts 27°
2026-05-09 18:41 70.61617 -10.91399 39189 ft 454 kts 28°
2026-05-09 18:42 70.67011 -10.81524 39172 ft 454 kts 28°
2026-05-09 18:42 70.72405 -10.71604 39166 ft 454 kts 28°
2026-05-09 18:43 70.77790 -10.61613 39168 ft 454 kts 28°
2026-05-09 18:43 70.83177 -10.51545 39151 ft 454 kts 28°
2026-05-09 18:44 70.88562 -10.41443 39146 ft 455 kts 28°
2026-05-09 18:44 70.93941 -10.31270 39148 ft 455 kts 28°
2026-05-09 18:45 70.99314 -10.21009 39132 ft 455 kts 28°
2026-05-09 18:45 71.04687 -10.10725 39131 ft 455 kts 28°
2026-05-09 18:46 71.10051 -10.00388 39143 ft 455 kts 28°
2026-05-09 18:46 71.15405 -9.89975 39136 ft 455 kts 28°
2026-05-09 18:47 71.20759 -9.79508 39114 ft 455 kts 28°
2026-05-09 18:47 71.26110 -9.69002 39112 ft 455 kts 28°
2026-05-09 18:48 71.31454 -9.58449 39113 ft 455 kts 29°
2026-05-09 18:48 71.36789 -9.47802 39094 ft 455 kts 30°
2026-05-09 18:49 71.42123 -9.37082 39092 ft 455 kts 29°
2026-05-09 18:49 71.47447 -9.26323 39092 ft 455 kts 30°
2026-05-09 18:50 71.52773 -9.15506 39088 ft 456 kts 29°
2026-05-09 18:50 71.58092 -9.04629 39080 ft 455 kts 29°
2026-05-09 18:51 71.63365 -8.93738 39071 ft 455 kts 30°
2026-05-09 18:51 71.68663 -8.82716 39069 ft 455 kts 30°
2026-05-09 18:52 71.73959 -8.71662 39054 ft 455 kts 31°
2026-05-09 18:52 71.79262 -8.60548 39047 ft 456 kts 30°
2026-05-09 18:53 71.84554 -8.49358 39046 ft 456 kts 31°
2026-05-09 18:53 71.89843 -8.38077 39034 ft 456 kts 30°
2026-05-09 18:54 71.95121 -8.26716 39033 ft 457 kts 31°
2026-05-09 18:54 72.00402 -8.15278 39038 ft 457 kts 31°
2026-05-09 18:55 72.05687 -8.03792 39012 ft 458 kts 32°
2026-05-09 18:55 72.10969 -7.92193 39013 ft 458 kts 32°
2026-05-09 18:56 72.16252 -7.80521 39012 ft 459 kts 32°
2026-05-09 18:56 72.21537 -7.68763 39014 ft 460 kts 32°
2026-05-09 18:57 72.26826 -7.56931 39006 ft 461 kts 32°
2026-05-09 18:57 72.32112 -7.45029 39011 ft 461 kts 32°
2026-05-09 18:58 72.37398 -7.33016 39012 ft 462 kts 32°
2026-05-09 18:58 72.42681 -7.20920 39021 ft 462 kts 33°
2026-05-09 18:59 72.47963 -7.08777 39020 ft 462 kts 33°
2026-05-09 18:59 72.52347 -6.98633 39015 ft 463 kts 33°
2026-05-09 19:00 72.57628 -6.86288 38994 ft 466 kts 33°
2026-05-09 19:00 72.66460 -6.65406 38995 ft 468 kts 34°
2026-05-09 19:01 72.70917 -6.54805 38999 ft 468 kts 34°
2026-05-09 19:01 72.77092 -6.40024 39000 ft 469 kts 34°
2026-05-09 19:02 72.81538 -6.29287 39008 ft 469 kts 34°
2026-05-09 19:02 72.86849 -6.16367 39029 ft 470 kts 34°
2026-05-09 19:03 72.92158 -6.03356 39029 ft 471 kts 34°
2026-05-09 19:03 72.97429 -5.90316 39030 ft 471 kts 35°
2026-05-09 19:04 73.02730 -5.77106 39038 ft 472 kts 35°
2026-05-09 19:04 73.08026 -5.63833 39038 ft 471 kts 35°
2026-05-09 19:05 73.13306 -5.50475 39036 ft 471 kts 35°
2026-05-09 19:05 73.18577 -5.37045 39043 ft 471 kts 35°
2026-05-09 19:06 73.23839 -5.23540 39043 ft 470 kts 35°
2026-05-09 19:06 73.29085 -5.09976 39042 ft 470 kts 36°
2026-05-09 19:07 73.34319 -4.96322 39055 ft 470 kts 35°
2026-05-09 19:07 73.39548 -4.82587 39052 ft 471 kts 36°
2026-05-09 19:08 73.44774 -4.68774 39049 ft 471 kts 36°
2026-05-09 19:08 73.49988 -4.54861 39050 ft 471 kts 36°
2026-05-09 19:09 73.55184 -4.40851 39050 ft 470 kts 36°
2026-05-09 19:09 73.60377 -4.26774 39050 ft 470 kts 36°
2026-05-09 19:10 73.65528 -4.12704 39059 ft 470 kts 36°
2026-05-09 19:10 73.70701 -3.98452 39062 ft 471 kts 36°
2026-05-09 19:11 73.75873 -3.84089 39076 ft 471 kts 37°
2026-05-09 19:11 73.81026 -3.69616 39073 ft 471 kts 36°
2026-05-09 19:12 73.86178 -3.55081 39069 ft 471 kts 37°
2026-05-09 19:12 73.91328 -3.40440 39076 ft 472 kts 37°
2026-05-09 19:13 73.96461 -3.25697 39080 ft 472 kts 37°
2026-05-09 19:13 74.01594 -3.10855 39084 ft 472 kts 37°
2026-05-09 19:14 74.06708 -2.95935 39085 ft 471 kts 37°
2026-05-09 19:14 74.11810 -2.80928 39089 ft 471 kts 37°
2026-05-09 19:15 74.16903 -2.65817 39095 ft 472 kts 38°
2026-05-09 19:15 74.21991 -2.50603 39097 ft 472 kts 38°
2026-05-09 19:16 74.27076 -2.35287 39107 ft 472 kts 38°
2026-05-09 19:16 74.32143 -2.19867 39102 ft 472 kts 38°
2026-05-09 19:17 74.37199 -2.04355 39116 ft 472 kts 38°
2026-05-09 19:17 74.42241 -1.88769 39116 ft 471 kts 39°
2026-05-09 19:18 74.47268 -1.73075 39111 ft 472 kts 39°
2026-05-09 19:18 74.52282 -1.57294 39129 ft 471 kts 39°
2026-05-09 19:19 74.57294 -1.41418 39126 ft 471 kts 39°
2026-05-09 19:19 74.62286 -1.25423 39127 ft 471 kts 39°
2026-05-09 19:20 74.67264 -1.09332 39141 ft 471 kts 39°
2026-05-09 19:20 74.72233 -0.93156 39143 ft 471 kts 40°
2026-05-09 19:21 74.77185 -0.76877 39141 ft 471 kts 40°
2026-05-09 19:21 74.82130 -0.60513 39155 ft 471 kts 40°
2026-05-09 19:22 74.87060 -0.44066 39156 ft 470 kts 40°
2026-05-09 19:22 74.91970 -0.27476 39153 ft 471 kts 40°
2026-05-09 19:23 74.96869 -0.10757 39153 ft 471 kts 40°
2026-05-09 19:23 75.01792 0.05889 39156 ft 471 kts 39°
2026-05-09 19:24 75.06826 0.22159 39165 ft 472 kts 38°
2026-05-09 19:24 75.11901 0.38330 39167 ft 472 kts 38°
2026-05-09 19:25 75.16923 0.54577 39169 ft 473 kts 39°
2026-05-09 19:25 75.21943 0.71177 39185 ft 473 kts 39°
2026-05-09 19:26 75.26956 0.87900 39187 ft 473 kts 39°
2026-05-09 19:26 75.31956 1.04702 39186 ft 473 kts 39°
2026-05-09 19:27 75.36950 1.21606 39202 ft 473 kts 40°
2026-05-09 19:27 75.41935 1.38624 39205 ft 473 kts 40°
2026-05-09 19:28 75.46905 1.55744 39204 ft 473 kts 40°
2026-05-09 19:28 75.51871 1.73013 39215 ft 474 kts 40°
2026-05-09 19:29 75.56833 1.90430 39225 ft 475 kts 40°
2026-05-09 19:29 75.61783 2.07982 39221 ft 475 kts 41°
2026-05-09 19:30 75.66676 2.25542 39239 ft 475 kts 41°
2026-05-09 19:30 75.71643 2.43519 39234 ft 475 kts 41°
2026-05-09 19:31 75.76558 2.61466 39240 ft 475 kts 41°
2026-05-09 19:31 75.81459 2.79507 39254 ft 475 kts 41°
2026-05-09 19:32 75.86345 2.97661 39252 ft 474 kts 41°
2026-05-09 19:32 75.91211 3.15911 39262 ft 474 kts 42°
2026-05-09 19:33 75.96063 3.34322 39256 ft 475 kts 42°
2026-05-09 19:33 76.00902 3.52853 39255 ft 475 kts 42°
2026-05-09 19:34 76.05734 3.71476 39270 ft 475 kts 42°
2026-05-09 19:34 76.10553 3.90231 39267 ft 475 kts 43°
2026-05-09 19:35 76.15341 4.09173 39271 ft 475 kts 43°
2026-05-09 19:35 76.20124 4.28243 39276 ft 475 kts 43°
2026-05-09 19:36 76.24898 4.47402 39285 ft 475 kts 43°
2026-05-09 19:36 76.29654 4.66697 39283 ft 474 kts 44°
2026-05-09 19:37 76.34390 4.86091 39281 ft 474 kts 44°
2026-05-09 19:37 76.39114 5.05637 39281 ft 475 kts 44°
2026-05-09 19:38 76.43812 5.25366 39283 ft 475 kts 44°
2026-05-09 19:38 76.48507 5.45228 39295 ft 475 kts 44°
2026-05-09 19:39 76.53196 5.65213 39292 ft 475 kts 44°
2026-05-09 19:39 76.57867 5.85326 39294 ft 475 kts 44°
2026-05-09 19:40 76.62515 6.05615 39308 ft 475 kts 45°
2026-05-09 19:40 76.67144 6.26038 39304 ft 475 kts 45°
2026-05-09 19:41 76.71757 6.46513 39305 ft 475 kts 45°
2026-05-09 19:41 76.76366 6.67163 39309 ft 475 kts 45°
2026-05-09 19:42 76.80948 6.87976 39311 ft 475 kts 46°
2026-05-09 19:42 76.85511 7.08935 39313 ft 475 kts 46°
2026-05-09 19:43 76.90052 7.30026 39317 ft 475 kts 46°
2026-05-09 19:43 76.94589 7.51264 39317 ft 475 kts 46°
2026-05-09 19:44 76.99103 7.72640 39317 ft 475 kts 46°
2026-05-09 19:44 77.03595 7.94192 39317 ft 475 kts 47°
2026-05-09 19:45 77.07319 8.12215 39321 ft 475 kts 47°
2026-05-09 19:45 77.11783 8.34051 39330 ft 476 kts 47°
2026-05-09 19:46 77.16952 8.59597 39325 ft 475 kts 47°
2026-05-09 19:46 77.20655 8.78130 39325 ft 475 kts 47°
2026-05-09 19:47 77.25065 9.00382 39311 ft 474 kts 47°
2026-05-09 19:47 77.27254 9.11476 38807 ft 472 kts 48°
2026-05-09 19:47 77.29438 9.22628 38019 ft 472 kts 48°
2026-05-09 19:48 77.31612 9.33801 37258 ft 472 kts 48°
2026-05-09 19:48 77.33777 9.45009 36949 ft 471 kts 49°
2026-05-09 19:48 77.35941 9.56258 36709 ft 473 kts 49°
2026-05-09 19:48 77.38080 9.67440 36463 ft 473 kts 49°
2026-05-09 19:49 77.40279 9.79004 35523 ft 480 kts 49°
2026-05-09 19:49 77.42460 9.90563 34839 ft 477 kts 49°
2026-05-09 19:49 77.44610 10.02034 34023 ft 471 kts 49°
2026-05-09 19:49 77.46745 10.13469 32769 ft 471 kts 49°
2026-05-09 19:50 77.48878 10.24923 31461 ft 471 kts 49°
2026-05-09 19:50 77.51010 10.36430 30061 ft 472 kts 49°
2026-05-09 19:50 77.53144 10.48041 28623 ft 474 kts 49°
2026-05-09 19:50 77.55250 10.59573 27846 ft 464 kts 49°
2026-05-09 19:51 77.57313 10.70944 27027 ft 456 kts 49°
2026-05-09 19:51 77.59333 10.82149 26235 ft 449 kts 50°
2026-05-09 19:51 77.61323 10.93240 25456 ft 443 kts 50°
2026-05-09 19:51 77.63280 11.04213 24692 ft 438 kts 50°
2026-05-09 19:52 77.65212 11.15109 23934 ft 433 kts 50°
2026-05-09 19:52 77.67113 11.25887 23128 ft 427 kts 50°
2026-05-09 19:52 77.68983 11.36526 22464 ft 419 kts 50°
2026-05-09 19:52 77.70823 11.47029 21808 ft 413 kts 50°
2026-05-09 19:53 77.72631 11.57384 21219 ft 407 kts 50°
2026-05-09 19:53 77.74408 11.67632 20634 ft 402 kts 50°
2026-05-09 19:53 77.76138 11.77673 20079 ft 398 kts 50°
2026-05-09 19:53 77.77864 11.87758 19537 ft 393 kts 50°
2026-05-09 19:54 77.79596 11.97901 18975 ft 389 kts 50°
2026-05-09 19:54 77.81261 12.07679 18393 ft 385 kts 50°
2026-05-09 19:54 77.82924 12.17498 17804 ft 380 kts 50°
2026-05-09 19:54 77.84564 12.27235 17236 ft 375 kts 51°
2026-05-09 19:55 77.86181 12.36874 16653 ft 371 kts 51°
2026-05-09 19:55 77.87775 12.46412 16079 ft 367 kts 51°
2026-05-09 19:55 77.89347 12.55882 15478 ft 363 kts 51°
2026-05-09 19:56 77.92436 12.74689 14297 ft 357 kts 51°
2026-05-09 19:56 77.93958 12.84006 13655 ft 354 kts 51°
2026-05-09 19:56 77.95461 12.93247 13083 ft 349 kts 51°
2026-05-09 19:56 77.96937 13.02344 12509 ft 343 kts 51°
2026-05-09 19:57 77.98389 13.11341 11906 ft 339 kts 51°
2026-05-09 19:57 77.99825 13.20265 11298 ft 336 kts 51°
2026-05-09 19:57 78.01236 13.29073 10913 ft 326 kts 51°
2026-05-09 19:57 78.02576 13.37523 10783 ft 310 kts 51°
2026-05-09 19:58 78.03849 13.45604 10644 ft 296 kts 51°
2026-05-09 19:58 78.05066 13.53329 10547 ft 282 kts 51°
2026-05-09 19:58 78.06159 13.60854 10552 ft 266 kts 61°
2026-05-09 19:58 78.06744 13.69052 10564 ft 252 kts 81°
2026-05-09 19:59 78.06937 13.77230 10564 ft 238 kts 82°
2026-05-09 19:59 78.07133 13.84903 10565 ft 223 kts 85°
2026-05-09 19:59 78.07053 13.92253 10564 ft 218 kts 103°
2026-05-09 19:59 78.06444 13.98889 10566 ft 217 kts 127°
2026-05-09 20:00 78.05338 14.03741 10569 ft 216 kts 152°
2026-05-09 20:00 78.03934 14.06068 10566 ft 214 kts 175°
2026-05-09 20:00 78.02468 14.05629 10571 ft 211 kts 198°
2026-05-09 20:00 78.01162 14.02607 10567 ft 208 kts 220°
2026-05-09 20:01 78.00098 13.97953 10570 ft 207 kts 228°
2026-05-09 20:01 77.99096 13.92993 10569 ft 207 kts 228°
2026-05-09 20:01 77.98075 13.88113 10568 ft 207 kts 226°
2026-05-09 20:01 77.97027 13.83361 10568 ft 207 kts 225°
2026-05-09 20:02 77.95958 13.78734 10569 ft 207 kts 224°
2026-05-09 20:02 77.94870 13.74202 10568 ft 208 kts 223°
2026-05-09 20:02 77.93795 13.69585 10561 ft 207 kts 230°
2026-05-09 20:03 77.92517 13.57636 10564 ft 203 kts 261°
2026-05-09 20:03 77.92456 13.50944 10561 ft 202 kts 278°
2026-05-09 20:03 77.92805 13.44496 10558 ft 201 kts 294°
2026-05-09 20:03 77.93532 13.38833 10564 ft 201 kts 310°
2026-05-09 20:04 77.94582 13.34435 10562 ft 202 kts 327°
2026-05-09 20:04 77.95866 13.31730 10562 ft 203 kts 344°
2026-05-09 20:04 77.97268 13.30983 10561 ft 205 kts
2026-05-09 20:04 77.98670 13.32321 10562 ft 207 kts 19°
2026-05-09 20:05 77.99939 13.35630 10565 ft 209 kts 33°
2026-05-09 20:05 78.01101 13.39872 10561 ft 210 kts 37°
2026-05-09 20:05 78.02229 13.44339 10564 ft 210 kts 38°
2026-05-09 20:05 78.03353 13.48856 10564 ft 210 kts 38°
2026-05-09 20:06 78.04477 13.53363 10565 ft 210 kts 38°
2026-05-09 20:06 78.05603 13.57850 10565 ft 210 kts 37°
2026-05-09 20:06 78.06875 13.62542 10511 ft 257 kts 32°
2026-05-09 20:06 78.08483 13.67195 10384 ft 276 kts 27°
2026-05-09 20:07 78.10192 13.71662 10145 ft 281 kts 26°
2026-05-09 20:07 78.11963 13.76175 9560 ft 283 kts 26°
2026-05-09 20:07 78.13694 13.80628 8995 ft 284 kts 27°
2026-05-09 20:07 78.15417 13.85142 8610 ft 278 kts 27°
2026-05-09 20:08 78.17105 13.89650 8120 ft 276 kts 28°
2026-05-09 20:08 78.20435 13.98707 7334 ft 267 kts 28°
2026-05-09 20:08 78.21990 14.02980 7092 ft 254 kts 29°
2026-05-09 20:09 78.23519 14.07196 6645 ft 249 kts 29°
2026-05-09 20:09 78.24973 14.11484 6251 ft 242 kts 33°
2026-05-09 20:09 78.26357 14.16027 5836 ft 236 kts 34°
2026-05-09 20:09 78.27686 14.20544 5471 ft 229 kts 34°
2026-05-09 20:10 78.28957 14.25109 5123 ft 223 kts 43°
2026-05-09 20:10 78.29845 14.31184 4785 ft 218 kts 65°
2026-05-09 20:10 78.30205 14.38346 4555 ft 214 kts 87°
2026-05-09 20:10 78.30022 14.45540 4313 ft 211 kts 105°
2026-05-09 20:11 78.29656 14.52510 4025 ft 209 kts 104°
2026-05-09 20:11 78.29302 14.59405 3746 ft 205 kts 104°
2026-05-09 20:11 78.28956 14.66045 3450 ft 197 kts 104°
2026-05-09 20:11 78.28621 14.72432 3165 ft 189 kts 104°
2026-05-09 20:12 78.28298 14.78569 2900 ft 182 kts 105°
2026-05-09 20:12 78.27983 14.84509 2647 ft 177 kts 105°
2026-05-09 20:12 78.27673 14.90326 2391 ft 175 kts 105°
2026-05-09 20:12 78.27366 14.96078 2145 ft 173 kts 105°
2026-05-09 20:13 78.27063 15.01728 1884 ft 168 kts 105°
2026-05-09 20:13 78.26780 15.06977 1629 ft 147 kts 105°
2026-05-09 20:13 78.26530 15.11603 1401 ft 130 kts 105°
2026-05-09 20:13 78.26309 15.15679 1211 ft 122 kts 105°
2026-05-09 20:14 78.26091 15.19687 1031 ft 119 kts 106°
2026-05-09 20:14 78.25879 15.23570 872 ft 117 kts 106°
2026-05-09 20:14 78.25668 15.27421 721 ft 117 kts 106°
2026-05-09 20:14 78.25460 15.31204 572 ft 116 kts 106°
2026-05-09 20:15 78.25246 15.35075 395 ft 116 kts 106°
2026-05-09 20:15 78.25042 15.38898 220 ft 116 kts 105°
2026-05-09 20:15 78.24830 15.42688 99 ft 114 kts 107°
2026-05-09 20:15 78.24651 15.45884 92 ft 75 kts 105°
2026-05-09 20:16 78.24558 15.47534 98 ft 29 kts 104°